Location: Coed Ely
(51.5661°N, 3.4150°W)
Time: 19:09:48
(UTC+00:00)

CZ-4B R/B - Pass Details

Date: 28 January 2021
Orbit: 387 x 458 km, 97.6° (Epoch: 27 February)

Event Time Altitude Azimuth Distance (km) Brightness Sun altitude
Exits shadow 18:32:05 - 12° (NNE) 1,915 4.4 -14.8°
Reaches altitude 10° 18:32:55 10° 12° (NNE) 1,558 3.9 -14.9°
Maximum altitude 18:36:15 81° 287° (WNW) 441 1.3 -15.5°
Drops below altitude 10° 18:39:28 10° 198° (SSW) 1,503 4.4 -15.9°
Sets 18:41:25 0° 198° (SSW) 2,348 5.4 -16.2°
